Weather History for Dayton, OH

Change the Weather History Date:

Friday, April 26, 2013

  Actual Average Record
Temperature  
Mean Temperature 46 °F 55 °F  
Max Temperature 59 °F 66 °F 88 °F (1986)
Min Temperature 33 °F 45 °F 30 °F (1919)
Degree Days  
Heating Degree Days 19 10  
Month to date heating degree days 351 374  
Since 1 July heating degree days 5313 5413  
Cooling Degree Days 0 1  
Month to date cooling degree days 16 6  
Year to date cooling degree days 16 6  
Moisture  
Dew Point 30 °F    
Average Humidity 55    
Maximum Humidity 82    
Minimum Humidity 28    
Precipitation  
Precipitation 0.00 in 0.14 in 1.45 in (1989)
Month to date precipitation 3.60 3.53  
Year to date precipitation 11.15 11.82  
Snow  
Snow 0.00 in 0.00 in - (0.0)
Month to date snowfall 0.4 0.6  
Since 1 July snowfall 36.3 23.3  
Snow Depth 0.00 in    
Sea Level Pressure  
Sea Level Pressure 30.43 in    
Wind  
Wind Speed 3 mph (SSE)    
Max Wind Speed 10 mph    
Max Gust Speed 14 mph    
Visibility 10 miles    
Events      
T = Trace of Precipitation, MM = Missing Value Source: NWS Daily Summary

Daily Weather History Graph

Daily Weather History Graph

Search for Another Location

Airport:

Trip Planner

Search our weather history database for the weather conditions in past years. The results will help you decide how hot, cold, wet, or windy it might be!

Date:

Astronomy

Apr. 26, 2013 Rise Set
Actual Time 6:43 AM EDT 8:26 PM EDT
Civil Twilight 6:14 AM EDT 8:55 PM EDT
Nautical Twilight 5:39 AM EDT 9:30 PM EDT
Astronomical Twilight 5:02 AM EDT 10:08 PM EDT
Moon 9:48 PM EDT (4/26) 7:10 AM EDT (4/26)
Length of Visible Light 14h 41m
Length of Day
13h 43m
Full, 99% of the Moon is Illuminated
Apr 26
Full
May 2
Last Quarter
May 9
New
May 18
First Quarter
May 25
Full

Hourly Weather History & Observations

Time (EDT) Temp. Windchill Dew Point Humidity Pressure Visibility Wind Dir Wind Speed Gust Speed Precip Events Conditions
12:56 AM 41.0 °F - 27.0 °F 57% 30.40 in 10.0 mi Calm Calm - N/A   Clear
1:56 AM 39.9 °F - 27.0 °F 60% 30.41 in 10.0 mi Calm Calm - N/A   Clear
2:56 AM 39.0 °F - 27.0 °F 62% 30.40 in 10.0 mi Calm Calm - N/A   Clear
3:56 AM 36.0 °F - 27.0 °F 70% 30.41 in 10.0 mi Calm Calm - N/A   Clear
4:56 AM 36.0 °F - 27.0 °F 70% 30.42 in 10.0 mi Calm Calm - N/A   Clear
5:56 AM 35.1 °F - 27.0 °F 72% 30.44 in 10.0 mi Calm Calm - N/A   Clear
6:56 AM 35.1 °F - 28.0 °F 76% 30.45 in 10.0 mi Calm Calm - N/A   Scattered Clouds
7:56 AM 37.9 °F 34.4 °F 32.0 °F 79% 30.48 in 9.0 mi South 4.6 mph - N/A   Scattered Clouds
8:56 AM 44.1 °F 40.8 °F 30.0 °F 58% 30.48 in 10.0 mi South 5.8 mph - N/A   Partly Cloudy
9:56 AM 46.9 °F - 30.0 °F 52% 30.48 in 10.0 mi ESE 5.8 mph - N/A   Partly Cloudy
10:56 AM 50.0 °F - 30.0 °F 46% 30.47 in 10.0 mi South 6.9 mph - N/A   Partly Cloudy
11:56 AM 52.0 °F - 28.9 °F 41% 30.49 in 10.0 mi WSW 3.5 mph - N/A   Scattered Clouds
12:56 PM 54.0 °F - 28.9 °F 38% 30.47 in 10.0 mi SSW 4.6 mph - N/A   Mostly Cloudy
1:56 PM 55.9 °F - 27.0 °F 33% 30.45 in 10.0 mi East 3.5 mph - N/A   Mostly Cloudy
2:56 PM 57.0 °F - 25.0 °F 29% 30.43 in 10.0 mi East 3.5 mph - N/A   Overcast
3:56 PM 57.9 °F - 30.0 °F 35% 30.41 in 10.0 mi ESE 6.9 mph - N/A   Mostly Cloudy
4:56 PM 59.0 °F - 32.0 °F 36% 30.39 in 10.0 mi SE 6.9 mph - N/A   Mostly Cloudy
5:56 PM 59.0 °F - 30.9 °F 35% 30.40 in 10.0 mi South 4.6 mph - N/A   Mostly Cloudy
6:56 PM 57.9 °F - 28.9 °F 33% 30.40 in 10.0 mi SE 3.5 mph - N/A   Mostly Cloudy
7:56 PM 55.0 °F - 34.0 °F 45% 30.38 in 10.0 mi SE 3.5 mph - N/A   Mostly Cloudy
8:56 PM 55.0 °F - 30.9 °F 40% 30.39 in 10.0 mi SSE 3.5 mph - N/A   Mostly Cloudy
9:56 PM 53.1 °F - 32.0 °F 45% 30.39 in 10.0 mi Calm Calm - N/A   Mostly Cloudy
10:56 PM 51.1 °F - 30.9 °F 46% 30.39 in 10.0 mi ESE 3.5 mph - N/A   Partly Cloudy
11:56 PM 46.9 °F - 34.0 °F 61% 30.38 in 10.0 mi East 3.5 mph - N/A   Partly Cloudy